Torna al catalogo

GALILEO 17

26D

AttivoNavigazioneMEO
NORAD 41861·PAYLOAD·🇪🇺 EU

Lanciato Nov 17, 2016 da Guiana Space Centre

Loading…

Prossimi Passaggi (prossime 24 ore)

TLE

AggiornatoSource: CelesTrak SupGP

Epoca: Sep 13, 2026, 23:59 UTC

1 41861C 16069C   26256.99979167  .00000000  00000+0  00000+0 0  2564
2 41861  55.5552  98.6297 0001936 329.2542 312.7266  1.70474625    10

Traccia GALILEO 17 in tempo reale con AllMySat

Download on the App Store